NUDTSAT (42787 NORAD) Tracking and Keplerian Element Data

This shows tracking and keplerian element data for the satellite.

Feedback or suggestion? Click here.




ElementValue
Catalog42787
NameNUDTSAT
Epoch Orbit29266
Epoch Day269.90878204
Epoch Year2022
RAAN313.585
Inclination97.1937
Eccentricity0.0006795
Argument of Perigee321.0915
Mean Anonmoly38.9853
Mean Motion15.37162769
Decay Rate0.00022007
L11 42787U 17036Y 22269.90878204 .00022007 00000+0 60561-3 0 9995
L22 42787 97.1937 313.5850 0006795 321.0915 38.9853 15.37162769292667

Live tracking and technical data element details for NUDTSAT (NORAD 42787). NUDTSAT can be tracked NOW for your location showing map with azimuth and elevation plus other details from your city location.

Track the satellite on the map from your city or location and see movement details for azimuth, elevation, latitude, longitude, range, height, and movement on the map or in text.







IsCatalogInMostPopularTable: catalog: 42787, numindb: 593
Update: records affected: 1



GetName: 42787 NUDTSAT

Hit Count: updated at: Fri, 30 Sep 2022 02:22:45 GMT